This is the latest recevied weather packets stored in our database for station/object WA1TYB-13. If no packets are shown the sender has not sent any weather packets the latest 10 day(s).
| Time | Temp. | Humidity | Pressure | Rain* | Wind** | Luminosity | Snow |
|---|---|---|---|---|---|---|---|
| 1778159238 | 9.44° C | 80% | 1014.5 hPa | 0 mm | - | 41 W/m² | - |
| 1778158936 | 9.44° C | 81% | 1014.8 hPa | 0 mm | - | 32 W/m² | - |
| 1778158634 | 9.44° C | 81% | 1014.4 hPa | 0 mm | - | 31 W/m² | - |
| 1778158332 | 9.44° C | 81% | 1014.3 hPa | 0 mm | - | 27 W/m² | - |
| 1778158028 | 9.44° C | 81% | 1014.3 hPa | 0 mm | - | 26 W/m² | - |
| 1778157725 | 8.89° C | 83% | 1014.2 hPa | 0 mm | - | 19 W/m² | - |
| 1778157423 | 8.89° C | 83% | 1014.3 hPa | 0 mm | - | 15 W/m² | - |
| 1778157120 | 8.89° C | 82% | 1014.4 hPa | 0 mm | - | 8 W/m² | - |
| 1778156815 | 8.89° C | 81% | 1014.5 hPa | 0 mm | - | 6 W/m² | - |
| 1778156512 | 9.44° C | 79% | 1014.7 hPa | 0 mm | - | 5 W/m² | - |
| 1778156208 | 8.89° C | 80% | 1014.3 hPa | 0 mm | - | 4 W/m² | - |
| 1778155904 | 8.89° C | 81% | 1014.3 hPa | 0 mm | - | 3 W/m² | - |
| 1778155600 | 8.89° C | 81% | 1014.2 hPa | 0 mm | - | 1 W/m² | - |
| 1778155297 | 8.89° C | 82% | 1014 hPa | 0 mm | - | 0 W/m² | - |
| 1778154993 | 8.89° C | 83% | 1013.9 hPa | 0 mm | - | 0 W/m² | - |
| 1778154689 | 8.89° C | 82% | 1014.1 hPa | 0 mm | - | 0 W/m² | - |
| 1778154385 | 8.89° C | 82% | 1014.2 hPa | 0 mm | - | 0 W/m² | - |
| 1778154082 | 8.89° C | 82% | 1014.1 hPa | 0 mm | - | 0 W/m² | - |
| 1778153780 | 8.89° C | 81% | 1014.2 hPa | 0 mm | - | 0 W/m² | - |
| 1778153476 | 9.44° C | 80% | 1014.1 hPa | 0 mm | - | 0 W/m² | - |
| 1778153174 | 9.44° C | 80% | 1014.4 hPa | 0 mm | - | 0 W/m² | - |
| 1778152871 | 10° C | 79% | 1014.3 hPa | 0 mm | - | 0 W/m² | - |
| 1778152568 | 10° C | 79% | 1014.3 hPa | 0 mm | - | 0 W/m² | - |
| 1778152265 | 10° C | 79% | 1014.3 hPa | 0 mm | - | 0 W/m² | - |
| 1778151961 | 10° C | 78% | 1014.3 hPa | 0 mm | - | 0 W/m² | - |
* Rain latest hour (hover to see other rain measurements)
** Current wind speed in m/s (hover to see current wind gust speed)